カタログに戻る

FENGYUN 1C DEB

運用中SSO
NORAD 31513·DEBRIS·🇨🇳 China

打ち上げ May 10, 1999 から Taiyuan Satellite Launch Center

Loading…

次のパス (今後24時間)

TLE

最新Source: Space-Track

元期: Sep 13, 2026, 02:39 UTC

1 31513U 99025BXC 26256.11047638  .00002902  00000-0  10278-2 0  9992
2 31513  98.8647   4.5473 0026587  46.2286 314.1092 14.35150055768017

AllMySatでFENGYUN 1C DEBをリアルタイム追跡

Download on the App Store